Location: Observatorio del Centro Ecologico de Sonora
(29.0667°N, 110.9333°W)
Time: 18:26:08

ISS - Visible Passes

Search period start: 04 October 2015 00:00
Search period end: 14 October 2015 00:00
Orbit: 401 x 408 km, 51.6° (Epoch: 04 October)

Date Brightness Start Highest point End Pass type
(mag) Time Alt. Az. Time Alt. Az. Time Alt. Az.
04 Oct -0.4 19:29:38 10° WNW 19:31:17 13° NW 19:32:51 10° N visible
05 Oct -1.1 18:36:05 10° W 18:38:49 24° NW 18:41:31 10° NNE visible
07 Oct -0.3 18:30:08 10° NW 18:30:54 11° NNW 18:31:33 10° NNW visible
